ECHO 1 DEB (METAL OBJ)

Satellite information

Favourite Embed

Satellite Type and Status

DEBRISIN ORBIT

Key statistics

Satellite ECHO 1 DEB (METAL OBJ) at a glance.

Uptime

23777

Days in orbit

Revolutions

≈ 12.2

Per day

Orbit

LEO

Low Earth Orbit

Inclination

47.2

Latest

Satellite identification and parameters

Extended collection of information and parameters for ECHO 1 DEB (METAL OBJ).

Object identification

Identified? True

Debris? True

Object name: ECHO 1 DEB (METAL OBJ)

International designator: 1960-009C

Object number (NORAD): 51

Object ID (CCSDS): 51

Country: UNITED STATES OF AMERICA (US)

Current information (Y/N): Y

RCS size: MEDIUM

Orbital parameters

Period: 118.191 minutes

Inclination: 47.2112 deg

SMA: 7977.798 km

Apoapsis: 1685.646 km

Periapsis: 1513.68 km

RAAN: 176.2504 deg

Eccentricy: 0.01077779

Argument of periapsis: 101.5741 deg

Mean anomaly: 259.7169 deg

Mean motion: 12.18367337 rev/day

Mean motion (dot): 0.00000049 rev/day2

B* drag term: 0.0013025052 1/REarth

Two-line elements (TLE)

Creation date: Sept. 16, 2025, 7:42 p.m.

Reference frame: TEME

Reference center: EARTH

Epoch: Sept. 16, 2025, 11:57 a.m. UTC

TLE line 0: 0 ECHO 1 DEB (METAL OBJ)

TLE line 1: 1 00051U 60009C 25259.49800174 .00000049 00000-0 13025-2 0 9993

TLE line 2: 2 00051 47.2112 176.2504 0107778 101.5741 259.7169 12.18367337897801

Live tracking on map

Real-time ground track for satellite ECHO 1 DEB (METAL OBJ).

In-orbit conjunctions

There are no conjunctions computed for ECHO 1 DEB (METAL OBJ), at the moment. Check back to stay up to date, as we update our databases every day.

Go to all conjunctions

Associated space launch

The Echo 1A spacecraft was a 30.48 m diameter balloon of mylar polyester film 0.0127 mm thick. The spacecraft was designed as a passive communications reflector for transcontinental and intercontinental telephone (voice), radio, and television signals. It had 107.9 MHz beacon transmitters for telemetry purposes. These transmitters were powered by five nickel-cadmium batteries that were charged by 70 solar cells mounted on the balloon. Because of the large area-to-mass ratio of the spacecraft, data for the calculation of atmospheric density and solar pressure could be acquired. The spacecraft was also used to evaluate the technical feasibility of satellite triangulation during the latter portion of its life. Echo 1 failed during the coast period after launch, as the attitude control jets on the second stage failed and the spacecraft did not achieve orbit. Echo 1A was a successful relaunch.

ECHO 1 DEB (METAL OBJ) was lifted into orbit during the mission ‘Thor Delta | Echo 1’, on board a Thor Delta space rocket.

The launch took place on Aug. 12, 1960, 9:39 a.m. from Space Launch Complex 17A.

For more information about the launch, click the button.

Launch to space Thor Delta | Echo 1
Thor Delta | Echo 1

Agency: N/A

Status: Launch Successful

Launch date: Aug. 12, 1960, 9:39 a.m. UTC

Rocket: Thor Delta

Launch pad: Space Launch Complex 17A

Location: Cape Canaveral SFS, FL, USA

...

Latest news about this satellite

There are no fresh news available about this satellite. Check back as we update our databases every day.


Newsletter sign-up

Weekly statistics, charts and insights to help you stay on top of the space industry.